CW8896 Weather Reports


time (UTC)temp
C
wind
direction
speed
KPH
gust
KPH
rain 1hr
cm
rain 24hr
cm
rain mn
cm
humidity
%
barometer
mb
20260510065004 13 68 0.0 3.2 0.03 0.69 0.51 95 1010.2
20260510064004 13 54 0.0 4.8 0.03 0.69 0.51 95 1010.2
20260510063005 14 71 0.0 1.6 0.03 0.69 0.51 95 1010.1
20260510062004 13 72 0.0 4.8 0.03 0.69 0.51 95 1010.1
20260510061004 13 62 0.0 6.4 0.00 0.66 0.51 95 1009.9
20260510060006 13 74 0.0 1.6 0.00 0.66 0.51 95 1009.9
20260510055004 13 42 0.0 3.2 0.00 0.66 0.51 95 1009.8
20260510054004 13 17 0.0 1.6 0.00 0.66 0.51 95 1009.9
20260510053005 13 16 0.0 3.2 0.00 0.66 0.51 95 1009.8
20260510052004 13 14 0.0 4.8 0.00 0.66 0.51 95 1009.8
20260510051004 13 346 0.0 3.2 0.00 0.66 0.51 95 1009.8
20260510050005 13 5 1.6 4.8 0.00 0.66 0.51 95 1009.8
20260510045004 13 352 0.0 4.8 0.00 0.66 0.51 95 1009.9
20260510044004 13 27 0.0 1.6 0.03 0.66 0.51 95 1010.0
20260510043004 13 5 0.0 4.8 0.03 0.66 0.51 95 1010.1
20260510041004 13 26 1.6 4.8 0.03 0.66 0.51 95 1010.3
20260510040004 13 2 1.6 4.8 0.05 0.66 0.51 95 1010.3
20260510035004 13 11 1.6 4.8 0.05 0.66 0.51 95 1010.4
20260510034004 14 33 0.0 3.2 0.05 0.64 0.48 95 1010.3
20260510032004 14 15 0.0 1.6 0.08 0.64 0.48 95 1010.6
20260510031004 14 11 0.0 1.6 0.08 0.64 0.48 95 1010.6
20260510030005 14 11 0.0 3.2 0.05 0.61 0.46 95 1010.5
20260510025004 14 31 0.0 1.6 0.05 0.61 0.46 95 1010.6
20260510024004 14 29 0.0 1.6 0.05 0.61 0.43 95 1010.6
20260510023004 14 55 0.0 4.8 0.05 0.58 0.43 94 1010.8
20260510022004 14 68 0.0 1.6 0.03 0.56 0.41 95 1010.8
20260510021004 14 68 0.0 1.6 0.03 0.56 0.41 95 1010.9
20260510014003 14 58 0.0 1.6 0.13 0.56 0.41 95 1010.9
20260510013005 14 50 0.0 1.6 0.13 0.53 0.38 95 1011.1
20260510012004 14 4 0.0 1.6 0.13 0.53 0.38 94 1011.1
20260510011004 14 293 0.0 1.6 0.15 0.53 0.38 94 1011.2
20260510010005 14 293 0.0 1.6 0.13 0.51 0.33 94 1011.4
20260510005004 14 289 0.0 1.6 0.10 0.48 0.33 94 1011.4
20260510004004 14 289 0.0 1.6 0.05 0.43 0.28 94 1011.5
20260510003005 15 289 0.0 1.6 0.05 0.43 0.25 94 1011.6
20260510001004 15 289 0.0 1.6 0.05 0.41 0.23 94 1011.7
20260510000004 15 313 0.0 1.6 0.08 0.38 0.23 94 1011.8
20260509235004 15 13 0.0 1.6 0.08 0.38 0.23 94 1011.9
20260509234004 15 11 0.0 3.2 0.10 0.38 0.23 94 1012.0
20260509233006 15 0 0.0 0.0 0.15 0.36 0.20 94 1012.1
20260509232003 15 266 0.0 1.6 0.18 0.33 0.18 94 1012.2
20260509231004 15 266 0.0 1.6 0.15 0.33 0.15 93 1012.1
20260509230005 15 266 0.0 1.6 0.15 0.30 0.15 94 1012.1
20260509225004 15 266 0.0 1.6 0.15 0.30 0.15 93 1012.1
20260509223005 15 0 0.0 0.0 0.08 0.23 0.05 93 1012.1
20260509221004 15 266 0.0 1.6 0.05 0.15 0.00 93 1011.7
20260509220009 15 264 0.0 1.6 0.05 0.15 0.00 93 1011.7
20260509214004 15 0 0.0 0.0 0.13 0.15 0.15 92 1011.6
20260509213005 15 0 0.0 0.0 0.10 0.15 0.15 92 1011.7
20260509211004 16 0 0.0 0.0 0.13 0.13 0.13 90 1011.7
20260509210005 16 229 0.0 1.6 0.08 0.08 0.08 89 1011.8
20260509205004 16 211 0.0 6.4 0.08 0.08 0.08 88 1011.9
20260509204004 16 196 1.6 8.0 0.05 0.05 0.05 86 1011.9
20260509203004 16 214 0.0 6.4 0.05 0.05 0.05 85 1011.9
20260509202004 17 146 0.0 4.8 0.03 0.03 0.03 83 1011.8
20260509195004 17 223 0.0 1.6 0.00 0.00 0.00 77 1011.4
20260509194005 17 227 0.0 1.6 0.00 0.00 0.00 76 1011.4
20260509193005 17 0 0.0 0.0 0.00 0.00 0.00 76 1011.3
20260509192004 17 215 0.0 4.8 0.00 0.00 0.00 75 1011.2
20260509190006 17 0 0.0 0.0 0.00 0.00 0.00 73 1011.1
20260509185004 17 0 0.0 0.0 0.00 0.00 0.00 73 1010.9
20260509184004 17 0 0.0 0.0 0.00 0.00 0.00 70 1010.9
20260509183004 17 0 0.0 0.0 0.00 0.00 0.00 69 1011.1
20260509182004 17 0 0.0 0.0 0.00 0.00 0.00 68 1011.1
20260509180004 18 80 0.0 1.6 0.00 0.00 0.00 66 1010.9
20260509175004 18 0 0.0 0.0 0.00 0.00 0.00 64 1010.7
20260509174004 18 208 0.0 1.6 0.00 0.00 0.00 64 1010.6
20260509173005 18 208 0.0 1.6 0.00 0.00 0.00 60 1010.6
20260509172004 18 214 0.0 1.6 0.00 0.00 0.00 62 1010.5
20260509171004 18 213 0.0 1.6 0.00 0.00 0.00 62 1010.5
20260509170005 18 191 0.0 4.8 0.00 0.00 0.00 60 1010.6
20260509165003 18 168 0.0 4.8 0.00 0.00 0.00 58 1010.6
20260509164005 19 152 1.6 8.0 0.00 0.00 0.00 58 1010.9
20260509163004 19 128 1.6 8.0 0.00 0.00 0.00 56 1010.9
20260509162004 19 202 0.0 6.4 0.00 0.00 0.00 56 1011.1
20260509160005 20 214 1.6 6.4 0.00 0.00 0.00 53 1011.3
20260509155003 20 223 0.0 4.8 0.00 0.00 0.00 55 1011.3
20260509154004 20 128 0.0 4.8 0.00 0.00 0.00 53 1011.3
20260509153006 20 198 1.6 6.4 0.00 0.00 0.00 52 1011.6
20260509152004 20 129 1.6 6.4 0.00 0.00 0.00 50 1011.8
20260509151004 20 143 1.6 8.0 0.00 0.00 0.00 49 1011.9
20260509150008 20 107 1.6 6.4 0.00 0.00 0.00 47 1011.8
20260509145004 20 89 1.6 6.4 0.00 0.00 0.00 48 1011.8
20260509144004 21 105 1.6 6.4 0.00 0.00 0.00 46 1012.0
20260509143004 21 109 1.6 8.0 0.00 0.00 0.00 47 1012.1
20260509142004 21 114 1.6 9.7 0.00 0.00 0.00 47 1012.2
20260509140005 21 147 3.2 12.9 0.00 0.00 0.00 44 1012.6
20260509135004 21 203 1.6 8.0 0.00 0.00 0.00 44 1012.6
20260509134004 22 197 3.2 14.5 0.00 0.00 0.00 45 1012.6
20260509133005 22 173 1.6 8.0 0.00 0.00 0.00 45 1012.9
20260509132004 22 200 1.6 9.7 0.00 0.00 0.00 46 1012.8
20260509131004 22 214 3.2 12.9 0.00 0.00 0.00 46 1013.2
20260509130005 22 211 3.2 12.9 0.00 0.00 0.00 47 1013.3
20260509125004 22 105 3.2 11.3 0.00 0.00 0.00 47 1013.1
20260509124003 22 91 3.2 14.5 0.00 0.00 0.00 45 1013.1
20260509122004 22 105 4.8 11.3 0.00 0.00 0.00 50 1013.2
20260509121005 22 155 3.2 16.1 0.00 0.00 0.00 48 1013.4
20260509120005 22 89 3.2 9.7 0.00 0.00 0.00 51 1013.4
20260509115004 21 83 4.8 11.3 0.00 0.00 0.00 51 1013.5
20260509114003 21 100 3.2 11.3 0.00 0.00 0.00 48 1013.7
20260509113005 21 82 4.8 11.3 0.00 0.00 0.00 54 1013.7
20260509111004 21 127 3.2 9.7 0.00 0.00 0.00 57 1013.6
20260509110004 22 156 3.2 12.9 0.00 0.00 0.00 56 1013.9
20260509105004 21 96 3.2 9.7 0.00 0.00 0.00 57 1013.9
20260509103006 20 83 3.2 14.5 0.00 0.00 0.00 63 1013.8
20260509102004 20 104 3.2 11.3 0.00 0.00 0.00 63 1013.9
20260509101004 20 85 3.2 11.3 0.00 0.00 0.00 63 1013.7
20260509100005 20 100 3.2 11.3 0.00 0.00 0.00 64 1013.7
20260509095004 20 83 3.2 12.9 0.00 0.00 0.00 66 1013.8
20260509094004 20 95 3.2 9.7 0.00 0.00 0.00 67 1013.9
20260509093004 20 101 3.2 9.7 0.00 0.00 0.00 67 1013.9
20260509091004 18 90 3.2 9.7 0.00 0.00 0.00 74 1014.0
20260509085004 18 85 3.2 8.0 0.00 0.00 0.00 76 1014.1
20260509084004 18 98 1.6 9.7 0.00 0.00 0.00 76 1014.3
20260509083004 18 81 1.6 6.4 0.00 0.00 0.00 77 1014.2
20260509081005 18 116 1.6 8.0 0.00 0.00 0.00 78 1014.4
20260509080005 17 64 3.2 9.7 0.00 0.00 0.00 80 1014.6
20260509075004 17 73 4.8 11.3 0.00 0.00 0.00 80 1014.7
20260509074004 17 67 4.8 12.9 0.00 0.00 0.00 80 1014.8
20260509073005 17 47 3.2 9.7 0.00 0.00 0.00 82 1014.9
20260509072004 16 79 1.6 9.7 0.00 0.00 0.00 82 1014.9
20260509070005 16 61 3.2 9.7 0.00 0.00 0.00 83 1014.8